This is the latest recevied weather packets stored in our database for station/object W3TMB. If no packets are shown the sender has not sent any weather packets the latest 10 day(s).
| Time | Temp. | Humidity | Pressure | Rain* | Wind** | Luminosity | Snow |
|---|---|---|---|---|---|---|---|
| 1777943347 | 19.44° C | 56% | 1004.1 hPa | 0 mm | - | 0 W/m² | - |
| 1777943043 | 20° C | 55% | 1003.9 hPa | 0 mm | - | 0 W/m² | - |
| 1777942739 | 20.56° C | 53% | 1003.8 hPa | 0 mm | - | 0 W/m² | - |
| 1777942436 | 20.56° C | 50% | 1003.8 hPa | 0 mm | - | 0 W/m² | - |
| 1777942134 | 21.11° C | 50% | 1003.8 hPa | 0 mm | - | 0 W/m² | - |
| 1777941829 | 21.11° C | 49% | 1003.7 hPa | 0 mm | - | 0 W/m² | - |
| 1777941527 | 21.11° C | 49% | 1003.8 hPa | 0 mm | - | 0 W/m² | - |
| 1777941224 | 21.11° C | 49% | 1003.7 hPa | 0 mm | - | 0 W/m² | - |
| 1777940920 | 21.67° C | 47% | 1003.7 hPa | 0 mm | - | 0 W/m² | - |
| 1777940617 | 21.67° C | 47% | 1003.7 hPa | 0 mm | - | 0 W/m² | - |
| 1777940316 | 21.67° C | 47% | 1003.6 hPa | 0 mm | - | 0 W/m² | - |
| 1777940012 | 21.67° C | 48% | 1003.6 hPa | 0 mm | - | 0 W/m² | - |
| 1777939709 | 21.67° C | 46% | 1003.4 hPa | 0 mm | - | 0 W/m² | - |
| 1777939407 | 22.22° C | 46% | 1003.4 hPa | 0 mm | - | 3 W/m² | - |
| 1777939104 | 22.22° C | 44% | 1003.6 hPa | 0 mm | - | 6 W/m² | - |
| 1777938801 | 22.78° C | 45% | 1003.3 hPa | 0 mm | - | 10 W/m² | - |
| 1777938497 | 22.78° C | 44% | 1003.4 hPa | 0 mm | - | 12 W/m² | - |
| 1777938195 | 22.78° C | 43% | 1003.5 hPa | 0 mm | - | 16 W/m² | - |
| 1777937891 | 22.78° C | 42% | 1003.3 hPa | 0 mm | - | 21 W/m² | - |
| 1777937587 | 23.33° C | 42% | 1003.3 hPa | 0 mm | - | 20 W/m² | - |
| 1777937284 | 23.33° C | 41% | 1003.3 hPa | 0 mm | - | 18 W/m² | - |
| 1777936981 | 23.33° C | 41% | 1002.8 hPa | 0 mm | - | 23 W/m² | - |
| 1777936678 | 23.89° C | 40% | 1003.1 hPa | 0 mm | - | 30 W/m² | - |
| 1777936374 | 23.89° C | 39% | 1003.1 hPa | 0 mm | - | 35 W/m² | - |
| 1777936070 | 24.44° C | 38% | 1003 hPa | 0 mm | - | 41 W/m² | - |
* Rain latest hour (hover to see other rain measurements)
** Current wind speed in m/s (hover to see current wind gust speed)